QPF
0.01 0.00 0.00 0.00 0.00 0.00 0.00 0.00 0.00 0.00 0.00 0.00 0.00 0.00 0.00 0.00 0.00 0.00 0.00 0.01 0.00 0.00 0.00 0.00 0.01 0.01 0.01 0.01 0.00 0.00 0.00 0.01 0.01 0.00 0.00 0.00 0.00 0.00 0.01 0.03 0.07 0.15 0.23 0.14
0.01 0.00 0.00 0.00 0.00 0.00 0.00 0.00 0.00 0.00 0.00 0.00 0.00 0.00 0.00 0.00 0.00 0.00 0.00 0.00 0.00 0.00 0.00 0.00 0.00 0.00 0.00 0.00 0.00 0.00 0.01 0.03 0.03 0.03 0.03 0.02 0.01 0.00 0.00 0.01 0.04 0.08 0.14 0.13
0.00 0.00 0.00 0.00 0.00 0.00 0.00 0.00 0.00 0.00 0.00 0.00 0.00 0.00 0.00 0.00 0.00 0.00 0.00 0.00 0.00 0.00 0.00 0.00 0.00 0.00 0.00 0.00 0.02 0.05 0.11 0.16 0.17 0.17 0.16 0.08 0.03 0.01 0.00 0.01 0.03 0.08 0.15 0.13
0.00 0.00 0.00 0.00 0.00 0.00 0.00 0.00 0.00 0.00 0.00 0.00 0.00 0.00 0.00 0.00 0.00 0.00 0.00 0.00 0.00 0.00 0.00 0.01 0.02 0.02 0.04 0.08 0.14 0.23 0.30 0.36 0.33 0.30 0.24 0.13 0.06 0.03 0.02 0.04 0.07 0.07 0.09 0.08
0.00 0.00 0.00 0.00 0.00 0.00 0.00 0.00 0.00 0.00 0.00 0.00 0.00 0.00 0.00 0.00 0.00 0.00 0.00 0.00 0.00 0.00 0.02 0.06 0.08 0.09 0.12 0.22 0.33 0.41 0.52 0.49 0.43 0.33 0.22 0.16 0.11 0.07 0.05 0.07 0.12 0.12 0.09 0.05
0.00 0.00 0.00 0.00 0.00 0.00 0.00 0.00 0.00 0.00 0.00 0.00 0.00 0.01 0.00 0.00 0.00 0.00 0.00 0.00 0.00 0.00 0.03 0.12 0.19 0.20 0.23 0.41 0.60 0.65 0.63 0.56 0.42 0.28 0.21 0.18 0.13 0.10 0.09 0.11 0.16 0.15 0.08 0.03
0.00 0.00 0.00 0.00 0.00 0.00 0.00 0.00 0.01 0.00 0.00 0.00 0.00 0.01 0.01 0.00 0.00 0.00 0.00 0.00 0.01 0.02 0.03 0.08 0.20 0.29 0.44 0.65 0.78 0.80 0.69 0.51 0.36 0.25 0.22 0.19 0.15 0.13 0.10 0.06 0.07 0.07 0.05 0.03
0.00 0.00 0.00 0.00 0.00 0.00 0.00 0.00 0.02 0.02 0.00 0.00 0.01 0.01 0.01 0.00 0.00 0.00 0.00 0.01 0.02 0.06 0.09 0.10 0.17 0.30 0.51 0.73 0.83 0.88 0.77 0.55 0.37 0.28 0.24 0.21 0.17 0.11 0.05 0.02 0.02 0.04 0.05 0.04
0.00 0.00 0.00 0.00 0.00 0.00 0.00 0.01 0.02 0.05 0.03 0.03 0.02 0.02 0.01 0.01 0.00 0.00 0.00 0.01 0.02 0.05 0.12 0.18 0.28 0.33 0.48 0.67 0.85 0.81 0.62 0.44 0.32 0.28 0.24 0.20 0.15 0.11 0.08 0.05 0.03 0.03 0.03 0.03
0.00 0.00 0.00 0.00 0.00 0.00 0.00 0.01 0.03 0.08 0.07 0.04 0.03 0.03 0.02 0.01 0.01 0.00 0.00 0.00 0.01 0.02 0.04 0.12 0.32 0.48 0.65 0.54 0.57 0.56 0.41 0.30 0.24 0.21 0.22 0.20 0.15 0.14 0.12 0.09 0.05 0.03 0.03 0.02
0.00 0.00 0.00 0.00 0.00 0.00 0.01 0.02 0.03 0.08 0.10 0.08 0.07 0.05 0.02 0.01 0.01 0.00 0.00 0.00 0.00 0.01 0.01 0.04 0.13 0.22 0.33 0.33 0.30 0.27 0.27 0.26 0.24 0.20 0.21 0.21 0.15 0.12 0.11 0.08 0.05 0.03 0.03 0.03
0.00 0.00 0.00 0.00 0.01 0.03 0.06 0.06 0.05 0.08 0.11 0.12 0.11 0.09 0.03 0.01 0.01 0.01 0.01 0.00 0.00 0.00 0.00 0.01 0.03 0.06 0.09 0.12 0.14 0.16 0.19 0.22 0.22 0.18 0.19 0.17 0.12 0.10 0.12 0.11 0.08 0.06 0.06 0.06
0.00 0.00 0.00 0.00 0.01 0.06 0.20 0.25 0.16 0.08 0.10 0.17 0.13 0.08 0.04 0.02 0.01 0.02 0.03 0.01 0.01 0.01 0.00 0.00 0.01 0.02 0.02 0.03 0.04 0.07 0.13 0.24 0.28 0.22 0.17 0.15 0.13 0.13 0.13 0.11 0.10 0.07 0.09 0.11
0.00 0.00 0.00 0.00 0.02 0.09 0.26 0.35 0.27 0.21 0.26 0.21 0.11 0.04 0.02 0.02 0.01 0.02 0.02 0.02 0.02 0.01 0.01 0.00 0.00 0.01 0.01 0.02 0.02 0.04 0.14 0.34 0.47 0.47 0.30 0.19 0.18 0.18 0.16 0.12 0.08 0.10 0.12 0.14
0.00 0.00 0.00 0.01 0.01 0.04 0.13 0.21 0.20 0.21 0.21 0.11 0.04 0.03 0.05 0.07 0.08 0.08 0.06 0.02 0.01 0.01 0.01 0.01 0.01 0.01 0.02 0.04 0.06 0.12 0.23 0.40 0.43 0.32 0.17 0.13 0.13 0.13 0.08 0.04 0.02 0.04 0.07 0.09
0.00 0.00 0.00 0.00 0.00 0.00 0.01 0.03 0.04 0.04 0.03 0.03 0.05 0.08 0.10 0.13 0.12 0.11 0.08 0.03 0.01 0.01 0.02 0.03 0.03 0.03 0.03 0.04 0.05 0.10 0.15 0.20 0.17 0.12 0.09 0.07 0.05 0.03 0.01 0.01 0.01 0.00 0.01 0.02
0.00 0.00 0.00 0.00 0.00 0.00 0.00 0.01 0.03 0.05 0.05 0.08 0.13 0.16 0.14 0.15 0.14 0.14 0.10 0.03 0.00 0.01 0.02 0.02 0.02 0.03 0.03 0.02 0.02 0.02 0.03 0.05 0.04 0.03 0.02 0.02 0.02 0.03 0.02 0.03 0.02 0.02 0.02 0.02
0.00 0.00 0.00 0.00 0.00 0.00 0.00 0.00 0.01 0.04 0.07 0.10 0.14 0.16 0.13 0.11 0.09 0.08 0.04 0.01 0.00 0.00 0.00 0.00 0.00 0.01 0.01 0.01 0.01 0.01 0.00 0.01 0.01 0.01 0.01 0.01 0.01 0.02 0.03 0.04 0.03 0.02 0.01 0.02
0.00 0.00 0.00 0.00 0.00 0.00 0.00 0.00 0.00 0.01 0.02 0.03 0.04 0.04 0.03 0.02 0.02 0.01 0.00 0.00 0.00 0.00 0.00 0.00 0.00 0.00 0.00 0.00 0.00 0.00 0.00 0.00 0.00 0.00 0.00 0.00 0.00 0.00 0.01 0.01 0.01 0.00 0.00 0.01
0.00 0.00 0.00 0.00 0.00 0.00 0.00 0.00 0.00 0.00 0.01 0.01 0.01 0.00 0.00 0.00 0.00 0.00 0.00 0.00 0.00 0.00 0.00 0.00 0.00 0.00 0.00 0.00 0.00 0.00 0.00 0.00 0.00 0.00 0.00 0.00 0.00 0.00 0.00 0.00 0.00 0.00 0.00 0.00
0.00 0.00 0.00 0.00 0.00 0.00 0.00 0.00 0.00 0.00 0.00 0.00 0.00 0.00 0.00 0.00 0.00 0.00 0.00 0.00 0.00 0.00 0.00 0.00 0.00 0.00 0.00 0.00 0.00 0.00 0.00 0.00 0.00 0.00 0.00 0.00 0.00 0.00 0.00 0.00 0.00 0.00 0.00 0.00
0.00 0.00 0.00 0.00 0.00 0.00 0.00 0.00 0.00 0.00 0.00 0.00 0.00 0.00 0.00 0.00 0.00 0.00 0.00 0.00 0.00 0.00 0.00 0.00 0.00 0.00 0.00 0.00 0.00 0.00 0.00 0.00 0.00 0.00 0.00 0.00 0.00 0.00 0.00 0.00 0.00 0.00 0.00 0.00
0.00 0.00 0.00 0.00 0.00 0.00 0.00 0.00 0.00 0.00 0.00 0.00 0.00 0.00 0.00 0.00 0.00 0.00 0.00 0.00 0.00 0.00 0.00 0.00 0.00 0.00 0.00 0.00 0.00 0.00 0.00 0.00 0.00 0.00 0.00 0.00 0.00 0.00 0.00 0.00 0.00 0.00 0.00 0.00
0.00 0.00 0.00 0.00 0.00 0.00 0.00 0.00 0.00 0.00 0.00 0.00 0.00 0.00 0.00 0.00 0.00 0.00 0.00 0.00 0.00 0.00 0.00 0.00 0.00 0.00 0.00 0.00 0.00 0.00 0.00 0.00 0.00 0.00 0.00 0.00 0.00 0.00 0.00 0.00 0.00 0.00 0.00 0.00
0.00 0.00 0.00 0.00 0.00 0.00 0.00 0.00 0.00 0.00 0.00 0.00 0.00 0.00 0.00 0.00 0.00 0.00 0.00 0.00 0.00 0.00 0.00 0.00 0.00 0.00 0.00 0.00 0.00 0.00 0.00 0.00 0.00 0.00 0.00 0.00 0.00 0.00 0.00 0.00 0.00 0.00 0.00 0.00
0.00 0.00 0.00 0.00 0.00 0.00 0.00 0.00 0.00 0.00 0.00 0.00 0.00 0.00 0.00 0.00 0.00 0.00 0.00 0.00 0.00 0.00 0.00 0.00 0.00 0.00 0.00 0.00 0.00 0.00 0.00 0.00 0.00 0.00 0.00 0.00 0.00 0.00 0.00 0.00 0.00 0.00 0.00 0.00
MSLP
1011.98 1012.59 1013.12 1013.57 1013.93 1014.23 1014.49 1014.71 1014.90 1015.05 1015.14 1015.16 1015.08 1014.91 1014.65 1014.28 1013.84 1013.33 1012.74 1012.10 1011.42 1010.70 1009.98 1009.30 1008.70 1008.23 1007.95 1007.88 1008.03 1008.40 1008.95 1009.63 1010.38 1011.12 1011.81 1012.40 1012.89 1013.27 1013.56 1013.78 1013.96 1014.13 1014.32 1014.54
1012.63 1013.16 1013.60 1013.95 1014.23 1014.49 1014.73 1014.98 1015.23 1015.46 1015.64 1015.74 1015.74 1015.62 1015.37 1014.99 1014.50 1013.91 1013.24 1012.50 1011.71 1010.88 1010.04 1009.25 1008.54 1007.96 1007.58 1007.44 1007.54 1007.88 1008.44 1009.16 1009.96 1010.78 1011.54 1012.20 1012.73 1013.13 1013.41 1013.61 1013.76 1013.90 1014.07 1014.28
1013.40 1013.83 1014.16 1014.41 1014.62 1014.82 1015.04 1015.31 1015.60 1015.90 1016.16 1016.34 1016.40 1016.31 1016.07 1015.68 1015.15 1014.50 1013.75 1012.92 1012.03 1011.11 1010.17 1009.28 1008.48 1007.83 1007.38 1007.17 1007.23 1007.56 1008.13 1008.87 1009.70 1010.56 1011.37 1012.06 1012.62 1013.02 1013.30 1013.47 1013.60 1013.71 1013.86 1014.05
1014.32 1014.65 1014.87 1015.02 1015.14 1015.29 1015.49 1015.76 1016.09 1016.43 1016.74 1016.97 1017.07 1017.01 1016.77 1016.36 1015.79 1015.09 1014.27 1013.37 1012.41 1011.41 1010.41 1009.45 1008.59 1007.89 1007.40 1007.16 1007.20 1007.52 1008.08 1008.82 1009.67 1010.54 1011.35 1012.05 1012.60 1012.99 1013.24 1013.39 1013.49 1013.58 1013.69 1013.87
1015.40 1015.62 1015.74 1015.79 1015.83 1015.92 1016.10 1016.36 1016.69 1017.06 1017.39 1017.64 1017.76 1017.70 1017.45 1017.02 1016.41 1015.66 1014.80 1013.85 1012.84 1011.79 1010.76 1009.77 1008.90 1008.18 1007.68 1007.43 1007.47 1007.77 1008.32 1009.05 1009.87 1010.71 1011.49 1012.15 1012.66 1013.01 1013.23 1013.35 1013.42 1013.48 1013.58 1013.74
1016.61 1016.72 1016.74 1016.70 1016.68 1016.71 1016.84 1017.08 1017.40 1017.75 1018.08 1018.32 1018.42 1018.34 1018.07 1017.61 1016.98 1016.20 1015.31 1014.33 1013.30 1012.25 1011.22 1010.24 1009.38 1008.68 1008.20 1007.96 1008.00 1008.29 1008.81 1009.49 1010.26 1011.03 1011.74 1012.33 1012.77 1013.07 1013.24 1013.32 1013.37 1013.42 1013.50 1013.64
1017.87 1017.88 1017.81 1017.70 1017.61 1017.59 1017.67 1017.87 1018.15 1018.46 1018.75 1018.95 1019.01 1018.89 1018.59 1018.10 1017.45 1016.66 1015.76 1014.79 1013.77 1012.74 1011.74 1010.81 1009.99 1009.34 1008.89 1008.68 1008.71 1008.98 1009.45 1010.06 1010.74 1011.42 1012.02 1012.51 1012.87 1013.10 1013.21 1013.27 1013.29 1013.34 1013.42 1013.56
1019.06 1019.00 1018.85 1018.68 1018.54 1018.48 1018.51 1018.66 1018.88 1019.12 1019.34 1019.48 1019.47 1019.31 1018.97 1018.45 1017.79 1017.00 1016.12 1015.17 1014.20 1013.22 1012.28 1011.41 1010.65 1010.06 1009.65 1009.46 1009.48 1009.72 1010.12 1010.64 1011.21 1011.76 1012.24 1012.62 1012.89 1013.04 1013.11 1013.14 1013.16 1013.21 1013.31 1013.46
1020.10 1019.98 1019.79 1019.58 1019.41 1019.31 1019.30 1019.38 1019.53 1019.70 1019.83 1019.88 1019.80 1019.57 1019.19 1018.65 1017.98 1017.20 1016.36 1015.46 1014.54 1013.63 1012.76 1011.97 1011.28 1010.74 1010.37 1010.18 1010.19 1010.38 1010.70 1011.11 1011.55 1011.98 1012.33 1012.60 1012.77 1012.86 1012.90 1012.92 1012.95 1013.02 1013.14 1013.32
1020.91 1020.77 1020.57 1020.35 1020.16 1020.04 1020.00 1020.02 1020.10 1020.17 1020.21 1020.16 1019.99 1019.70 1019.26 1018.70 1018.04 1017.29 1016.48 1015.64 1014.79 1013.95 1013.16 1012.43 1011.80 1011.30 1010.96 1010.77 1010.75 1010.87 1011.10 1011.40 1011.72 1012.01 1012.25 1012.42 1012.52 1012.57 1012.59 1012.62 1012.67 1012.77 1012.92 1013.13
1021.48 1021.34 1021.16 1020.96 1020.79 1020.67 1020.60 1020.58 1020.58 1020.57 1020.50 1020.36 1020.10 1019.74 1019.26 1018.68 1018.02 1017.29 1016.53 1015.74 1014.96 1014.19 1013.45 1012.78 1012.20 1011.73 1011.39 1011.19 1011.12 1011.17 1011.31 1011.50 1011.71 1011.89 1012.03 1012.13 1012.18 1012.20 1012.23 1012.27 1012.36 1012.49 1012.68 1012.91
1021.84 1021.75 1021.62 1021.47 1021.34 1021.23 1021.16 1021.10 1021.04 1020.94 1020.78 1020.54 1020.21 1019.77 1019.25 1018.65 1017.99 1017.29 1016.56 1015.83 1015.09 1014.38 1013.69 1013.06 1012.51 1012.05 1011.70 1011.47 1011.35 1011.33 1011.38 1011.48 1011.59 1011.69 1011.76 1011.81 1011.83 1011.86 1011.89 1011.97 1012.08 1012.25 1012.45 1012.68
1022.08 1022.06 1022.00 1021.93 1021.85 1021.78 1021.71 1021.63 1021.52 1021.35 1021.10 1020.78 1020.37 1019.87 1019.31 1018.69 1018.03 1017.35 1016.66 1015.96 1015.26 1014.58 1013.93 1013.33 1012.79 1012.33 1011.96 1011.70 1011.53 1011.44 1011.42 1011.44 1011.48 1011.52 1011.54 1011.56 1011.58 1011.62 1011.67 1011.77 1011.91 1012.08 1012.28 1012.50
1022.29 1022.36 1022.39 1022.40 1022.39 1022.36 1022.30 1022.20 1022.05 1021.82 1021.51 1021.11 1020.63 1020.09 1019.49 1018.86 1018.20 1017.53 1016.86 1016.18 1015.52 1014.86 1014.24 1013.65 1013.11 1012.65 1012.27 1011.97 1011.76 1011.63 1011.55 1011.51 1011.50 1011.50 1011.50 1011.50 1011.52 1011.56 1011.63 1011.74 1011.88 1012.05 1012.22 1012.40
1022.57 1022.72 1022.84 1022.92 1022.97 1022.97 1022.93 1022.82 1022.63 1022.35 1021.99 1021.54 1021.02 1020.43 1019.81 1019.17 1018.51 1017.85 1017.19 1016.54 1015.90 1015.26 1014.65 1014.08 1013.55 1013.08 1012.69 1012.38 1012.14 1011.97 1011.86 1011.79 1011.74 1011.71 1011.69 1011.68 1011.70 1011.74 1011.81 1011.91 1012.04 1012.17 1012.30 1012.41
1022.95 1023.18 1023.36 1023.49 1023.58 1023.61 1023.57 1023.45 1023.23 1022.92 1022.52 1022.04 1021.48 1020.88 1020.24 1019.60 1018.94 1018.30 1017.65 1017.02 1016.39 1015.78 1015.19 1014.63 1014.11 1013.66 1013.27 1012.96 1012.71 1012.53 1012.39 1012.30 1012.23 1012.17 1012.14 1012.12 1012.12 1012.15 1012.20 1012.28 1012.36 1012.44 1012.50 1012.54
1023.45 1023.71 1023.93 1024.08 1024.18 1024.21 1024.17 1024.03 1023.79 1023.46 1023.03 1022.53 1021.97 1021.36 1020.73 1020.09 1019.45 1018.81 1018.19 1017.57 1016.97 1016.38 1015.81 1015.27 1014.78 1014.35 1013.99 1013.69 1013.45 1013.27 1013.13 1013.02 1012.94 1012.86 1012.80 1012.76 1012.74 1012.73 1012.75 1012.78 1012.81 1012.84 1012.83 1012.79
1024.00 1024.27 1024.47 1024.62 1024.70 1024.71 1024.64 1024.48 1024.22 1023.88 1023.45 1022.95 1022.40 1021.80 1021.19 1020.57 1019.95 1019.34 1018.73 1018.13 1017.55 1016.98 1016.45 1015.94 1015.49 1015.10 1014.77 1014.50 1014.29 1014.12 1013.99 1013.88 1013.78 1013.69 1013.60 1013.52 1013.46 1013.41 1013.38 1013.36 1013.34 1013.31 1013.24 1013.14
1024.53 1024.75 1024.91 1025.01 1025.05 1025.02 1024.92 1024.73 1024.47 1024.12 1023.70 1023.22 1022.70 1022.14 1021.56 1020.97 1020.37 1019.78 1019.20 1018.63 1018.07 1017.53 1017.02 1016.56 1016.15 1015.79 1015.51 1015.28 1015.10 1014.96 1014.84 1014.74 1014.63 1014.52 1014.41 1014.30 1014.19 1014.10 1014.02 1013.95 1013.89 1013.80 1013.70 1013.56
1024.93 1025.08 1025.17 1025.20 1025.18 1025.10 1024.95 1024.75 1024.48 1024.15 1023.76 1023.31 1022.83 1022.32 1021.78 1021.23 1020.67 1020.11 1019.55 1019.00 1018.46 1017.95 1017.47 1017.04 1016.66 1016.35 1016.11 1015.92 1015.78 1015.67 1015.58 1015.48 1015.38 1015.26 1015.13 1014.99 1014.85 1014.72 1014.60 1014.50 1014.39 1014.29 1014.16 1014.01
1025.12 1025.18 1025.19 1025.14 1025.05 1024.91 1024.74 1024.53 1024.26 1023.96 1023.61 1023.22 1022.79 1022.34 1021.85 1021.35 1020.83 1020.30 1019.76 1019.23 1018.71 1018.21 1017.75 1017.34 1017.00 1016.72 1016.51 1016.35 1016.25 1016.17 1016.10 1016.02 1015.93 1015.81 1015.67 1015.52 1015.37 1015.22 1015.08 1014.95 1014.84 1014.73 1014.60 1014.46
1025.06 1025.03 1024.94 1024.82 1024.67 1024.50 1024.30 1024.09 1023.85 1023.59 1023.29 1022.96 1022.60 1022.21 1021.78 1021.33 1020.86 1020.36 1019.85 1019.33 1018.82 1018.33 1017.88 1017.48 1017.14 1016.88 1016.68 1016.55 1016.46 1016.41 1016.37 1016.31 1016.24 1016.14 1016.02 1015.87 1015.72 1015.57 1015.44 1015.32 1015.21 1015.11 1015.00 1014.88
1024.74 1024.62 1024.46 1024.28 1024.08 1023.89 1023.70 1023.50 1023.30 1023.09 1022.86 1022.60 1022.30 1021.98 1021.62 1021.22 1020.79 1020.32 1019.84 1019.34 1018.83 1018.34 1017.89 1017.48 1017.14 1016.87 1016.67 1016.54 1016.46 1016.42 1016.39 1016.37 1016.32 1016.26 1016.17 1016.05 1015.93 1015.81 1015.70 1015.60 1015.51 1015.44 1015.36 1015.26
1024.20 1024.00 1023.78 1023.56 1023.35 1023.16 1022.99 1022.84 1022.69 1022.54 1022.37 1022.18 1021.96 1021.70 1021.40 1021.06 1020.68 1020.25 1019.79 1019.31 1018.82 1018.32 1017.86 1017.43 1017.06 1016.77 1016.54 1016.39 1016.29 1016.25 1016.23 1016.23 1016.22 1016.20 1016.15 1016.10 1016.02 1015.95 1015.87 1015.81 1015.76 1015.71 1015.66 1015.59
1023.47 1023.22 1022.97 1022.74 1022.55 1022.39 1022.26 1022.16 1022.07 1021.99 1021.89 1021.76 1021.61 1021.42 1021.18 1020.90 1020.57 1020.19 1019.76 1019.30 1018.82 1018.33 1017.84 1017.39 1016.98 1016.64 1016.37 1016.17 1016.04 1015.98 1015.96 1015.98 1016.00 1016.02 1016.04 1016.05 1016.04 1016.02 1016.00 1015.99 1015.97 1015.95 1015.92 1015.86
1022.62 1022.34 1022.09 1021.89 1021.73 1021.63 1021.57 1021.54 1021.52 1021.50 1021.46 1021.40 1021.31 1021.17 1020.99 1020.76 1020.49 1020.16 1019.78 1019.35 1018.88 1018.39 1017.90 1017.41 1016.96 1016.56 1016.23 1015.97 1015.79 1015.69 1015.66 1015.68 1015.73 1015.80 1015.88 1015.95 1016.02 1016.07 1016.11 1016.14 1016.16 1016.16 1016.15 1016.10
Thickness
5752 5737 5729 5733 5735 5733 5727 5717 5711 5717 5727 5724 5719 5719 5725 5730 5733 5737 5741 5745 5751 5759 5771 5780 5786 5792 5795 5795 5792 5788 5780 5776 5772 5766 5758 5753 5752 5751 5749 5747 5743 5740 5737 5736
5731 5726 5734 5736 5730 5722 5712 5704 5701 5707 5715 5713 5704 5705 5708 5714 5713 5718 5724 5731 5740 5750 5759 5770 5779 5786 5790 5792 5791 5787 5781 5774 5769 5763 5757 5752 5751 5748 5746 5744 5740 5736 5734 5732
5723 5727 5735 5727 5716 5707 5700 5694 5695 5696 5699 5698 5691 5691 5691 5696 5700 5707 5714 5720 5729 5737 5746 5758 5768 5776 5783 5785 5784 5782 5777 5768 5758 5751 5746 5744 5743 5742 5739 5737 5735 5733 5730 5728
5720 5722 5719 5711 5703 5699 5686 5694 5692 5688 5679 5669 5673 5658 5674 5675 5681 5690 5698 5708 5717 5726 5737 5748 5757 5765 5772 5776 5776 5774 5770 5762 5751 5741 5736 5735 5733 5732 5733 5731 5730 5728 5725 5722
5706 5705 5698 5690 5688 5691 5683 5681 5676 5671 5665 5656 5656 5648 5655 5662 5663 5671 5681 5692 5702 5712 5724 5735 5745 5752 5760 5764 5764 5763 5761 5756 5745 5735 5730 5727 5727 5727 5727 5725 5724 5722 5721 5719
5694 5697 5689 5682 5682 5681 5674 5667 5657 5645 5641 5635 5648 5639 5640 5645 5648 5657 5668 5677 5687 5698 5710 5721 5731 5738 5743 5747 5749 5750 5749 5746 5737 5729 5725 5721 5719 5720 5719 5718 5717 5718 5717 5715
5668 5671 5669 5669 5659 5657 5649 5636 5619 5620 5615 5621 5642 5635 5632 5640 5646 5649 5655 5664 5674 5684 5695 5706 5715 5720 5725 5729 5733 5736 5738 5735 5727 5721 5717 5714 5714 5715 5716 5715 5714 5712 5709 5707
5640 5637 5643 5642 5632 5626 5624 5619 5602 5597 5601 5612 5630 5623 5626 5637 5642 5645 5648 5654 5663 5673 5683 5692 5703 5708 5711 5714 5718 5723 5725 5722 5716 5711 5708 5708 5709 5709 5709 5708 5706 5705 5704 5703
5622 5618 5625 5622 5614 5608 5596 5592 5591 5586 5594 5599 5608 5613 5623 5632 5634 5637 5641 5646 5653 5663 5673 5682 5691 5696 5699 5702 5705 5707 5708 5704 5702 5700 5701 5702 5701 5700 5700 5701 5701 5702 5701 5700
5613 5597 5599 5598 5596 5587 5578 5572 5567 5569 5574 5582 5596 5598 5602 5610 5615 5623 5630 5637 5645 5657 5666 5673 5680 5684 5686 5690 5692 5692 5692 5692 5693 5694 5695 5695 5695 5696 5696 5697 5698 5699 5698 5696
5605 5588 5580 5581 5573 5566 5565 5561 5560 5561 5565 5573 5583 5589 5599 5600 5606 5612 5622 5633 5642 5652 5660 5666 5671 5674 5675 5679 5681 5682 5683 5685 5688 5690 5691 5691 5692 5693 5694 5695 5696 5695 5693 5690
5601 5580 5571 5574 5577 5574 5565 5559 5558 5561 5570 5573 5576 5584 5600 5600 5605 5610 5621 5633 5644 5652 5662 5668 5669 5668 5670 5673 5676 5678 5683 5685 5687 5689 5690 5691 5692 5693 5693 5693 5692 5690 5688 5684
5605 5584 5567 5569 5570 5571 5568 5569 5570 5572 5574 5577 5581 5586 5602 5601 5605 5611 5621 5632 5642 5651 5661 5667 5669 5669 5671 5674 5678 5683 5686 5687 5687 5689 5690 5690 5691 5691 5690 5689 5687 5684 5681 5677
5607 5583 5570 5562 5559 5564 5569 5575 5578 5578 5575 5578 5580 5585 5595 5597 5602 5610 5619 5630 5641 5649 5655 5660 5664 5669 5673 5677 5682 5685 5686 5687 5688 5690 5691 5689 5688 5687 5685 5683 5680 5678 5674 5671
5606 5586 5580 5576 5576 5575 5573 5574 5577 5577 5576 5576 5579 5585 5588 5592 5598 5606 5616 5628 5638 5646 5652 5656 5660 5664 5669 5674 5679 5682 5683 5683 5685 5686 5685 5684 5683 5681 5678 5676 5675 5673 5669 5666
5606 5596 5589 5582 5582 5579 5574 5574 5577 5578 5577 5579 5584 5586 5588 5594 5600 5607 5614 5623 5631 5639 5645 5650 5655 5660 5663 5666 5670 5673 5675 5676 5678 5678 5678 5678 5676 5675 5673 5672 5670 5667 5664 5661
5607 5600 5589 5580 5583 5582 5568 5571 5573 5576 5575 5576 5577 5579 5588 5595 5601 5605 5610 5618 5627 5635 5640 5644 5649 5653 5656 5659 5662 5664 5666 5668 5669 5669 5670 5671 5671 5670 5667 5665 5662 5660 5657 5656
5614 5602 5589 5582 5585 5572 5573 5581 5580 5580 5581 5581 5583 5587 5592 5598 5605 5612 5615 5618 5625 5633 5637 5640 5642 5645 5649 5652 5654 5656 5658 5659 5659 5659 5659 5660 5660 5659 5657 5655 5652 5650 5649 5648
5619 5610 5595 5583 5577 5580 5585 5587 5583 5581 5584 5588 5590 5595 5600 5606 5615 5619 5622 5623 5627 5633 5638 5641 5643 5645 5647 5649 5650 5651 5651 5651 5652 5652 5651 5651 5651 5648 5646 5644 5642 5641 5640 5639
5620 5614 5603 5593 5590 5581 5588 5596 5594 5587 5589 5595 5596 5597 5600 5603 5605 5610 5621 5624 5631 5636 5640 5642 5644 5645 5646 5646 5647 5648 5647 5647 5646 5644 5643 5642 5641 5639 5636 5635 5634 5632 5631 5629
5617 5607 5601 5597 5594 5592 5603 5604 5600 5588 5592 5600 5600 5600 5600 5598 5601 5611 5619 5624 5630 5635 5639 5640 5640 5640 5640 5640 5640 5639 5638 5637 5636 5635 5634 5633 5631 5630 5628 5626 5625 5623 5622 5622
5620 5611 5603 5597 5597 5598 5613 5608 5602 5601 5605 5605 5606 5607 5606 5609 5615 5620 5626 5629 5633 5636 5639 5640 5638 5638 5638 5637 5636 5634 5632 5631 5630 5628 5627 5625 5623 5622 5620 5618 5616 5615 5614 5613
5625 5621 5612 5610 5609 5616 5617 5615 5616 5612 5610 5611 5611 5613 5613 5615 5620 5624 5629 5632 5635 5638 5640 5641 5639 5638 5639 5638 5637 5635 5633 5630 5628 5626 5625 5622 5620 5616 5614 5612 5609 5607 5606 5604
5635 5630 5622 5618 5616 5618 5618 5618 5619 5618 5616 5617 5617 5617 5619 5621 5624 5627 5630 5633 5635 5638 5640 5641 5641 5640 5640 5640 5638 5637 5635 5633 5630 5627 5624 5621 5618 5614 5611 5608 5605 5602 5599 5597
5644 5635 5628 5624 5623 5621 5620 5619 5621 5621 5621 5622 5624 5625 5625 5626 5628 5630 5631 5634 5636 5639 5641 5642 5641 5641 5642 5643 5642 5641 5639 5637 5633 5629 5625 5622 5618 5613 5610 5606 5601 5598 5595 5592
5648 5646 5638 5633 5634 5626 5623 5624 5623 5622 5625 5626 5626 5626 5628 5628 5629 5631 5632 5635 5637 5639 5641 5642 5643 5644 5645 5646 5646 5646 5644 5640 5636 5632 5628 5623 5618 5614 5610 5606 5601 5597 5594 5591